Other Surface Observations
Issued by NWS Charleston, SC

Home | Current Version | Previous Version | Text Only | Print | Product List | Glossary On
Versions: 1 2 3 4 5 6 7 8 9 10 11 12 13 14 15 16 17 18 19 20 21 22 23 24 25 26 27 28 29 30 31 32 33 34 35 36 37 38 39 40 41 42 43 44 45 46 47 48 49 50
025
SXUS52 KCHS 261628
OSOCHS

MARINE OBSERVATIONS
NATIONAL WEATHER SERVICE CHARLESTON SC
1200 PM EDT THU MAY 26 2016

...DOWNTOWN CHARLESTON AND HARBOR...

CITY           SKY/WX    TMP DP  RH WIND       PRES   REMARKS
WATERFRONT PRK   N/A     78  67  69 S7        30.19S

...LAKE MOULTRIE...

CITY           SKY/WX    TMP DP  RH WIND       PRES   REMARKS
PINOPOLIS        N/A     84  64  51 VRB3      30.12S

...LAKE AND SUPPLEMENTAL COASTAL OBSERVATIONS...

STATION/POSITION TIME  TEMP    WIND        PRES    WAVE   SWELL
                       AIR SEA DIR/SP/G            HT/PER HT/PER/DIR
                 (UTC) (F)     (DEG/KT/KT) (MB)    (FT/S) (FT/S/D)
FORT PULASKI     1600   80 76  190/  4/  7 1023.3F
SAPELO ISLAND    1600   85     110/  6     1023.0S
WINYAH BAY       1545   78     160/ 11     1022.0S
LAKE MURRAY      1600   81     150/  3/  4 1021.7S
ACE BASIN NERRS  1545   81     160/  2     1023.0S


...C-MAN AND BUOY OBSERVATIONS...

STATION/POSITION TIME  TEMP    WIND        PRES    WAVE   SWELL
                       AIR SEA DIR/SP/G            HT/PER HT/PER/DIR
                 (UTC) (F)     (DEG/KT/KT) (MB)    (FT/S) (FT/S/D)
BUOY 41004       1550   77 77  150/  4/  4 1023.1R   2/ 8   2/ 8
BUOY 41008       1550   77 77  120/  2/  4 1023.1F   2/ 8   2/120/ 8
FOLLY BEACH CMAN 1600   77     180/  8/  9 1023.5S
CAPERS NS BUOY   1608   76 76  210/  8/ 10 1023.2R
FRIPP NS BUOY    1608   77 77  170/  6/  8 1022.5F
5E ST. MARYS GA  1521      79                N/A     2/ 8


STATION/POSITION TIME  TEMP    WIND        PRES    WAVE   SWELL
                       AIR SEA DIR/SP/G            HT/PER HT/PER/DIR
                 (UTC) (F)     (DEG/KT/KT) (MB)    (FT/S) (FT/S/D)
FRYING PAN BUOY  1600   77 77  190/  4/  6 1023.0S
BUOY 41025       1550   73 70  240/  6/  8 1023.0F   2/ 8   2/130/ 8
CAPE LOOKOUT NC  1600   78     210/  8/ 10 1022.7F
BUOY 41002       1550   75 78   60/ 12/ 16 1022.8S   2/ 8   2/100/ 8
BUOY 41010       1520   76 78   60/ 12/ 14 1020.8F
ST AUGUSTINE FL  1600   76 79   80/  8/  9 1023.2F

$$




USA.gov is the U.S. government's official web portal to all federal, state and local government web resources and services.